AirNav   Air Wisconsin Up To $57,000 Bonus
 
 1131 users online  

MO63 St Luke's Northland Hospital Heliport
Kansas City, Missouri, USA

GOING TO KANSAS CITY?


FAA INFORMATION EFFECTIVE 22 APRIL 2021

Location

FAA Identifier: MO63
Lat/Long: 39-14-54.5100N 094-38-51.1800W
39-14.908500N 094-38.853000W
39.2484750,-94.6475500
(estimated)
Elevation: 1061 ft. / 323 m (estimated)
Variation: 05E (1985)
From city: 12 miles N of KANSAS CITY, MO
Time zone: UTC -5 (UTC -6 during Standard Time)
Zip code: 64154

Heliport Operations

Heliport use: Private use, MEDICAL USE.
Activation date: 08/1989
Control tower: no
ARTCC: KANSAS CITY CENTER
FSS: COLUMBIA FLIGHT SERVICE STATION
Attendance: CONTINUOUS
Wind indicator: yes
Segmented circle: no
Lights: FOR PERIMETER LGTS CALL 816-891-6000.

Heliport Communications

WX ASOS at MCI (4 nm NW): PHONE 816-329-2808
WX ASOS at MKC (8 nm S): PHONE 816-329-2843
WX AWOS-3 at GPH (16 nm E): 120.275 (816-407-3399)

Nearby radio navigation aids

VOR radial/distance  VOR name  Freq  Var
MCIr113/4.7KANSAS CITY VORTAC113.2505E
ANXr284/25.8NAPOLEON VORTAC114.0007E

 
NDB name  Hdg/Dist  Freq  Var  ID
AMAZON158/40.023304EAZN .- --.. -.

Heliport Services

Runway Information

Helipad H1

Dimensions: 40 x 40 ft. / 12 x 12 m
Surface: concrete
Runway edge lights: PERI
Latitude: 39-14.908500N
Longitude: 094-38.853000W
Elevation: 1061.0 ft.
Traffic pattern: leftleft

Heliport Ownership and Management from official FAA records

Ownership: Privately-owned
Owner: ST LUKE'S NORTH
5830 NW BARRY ROAD
KANSAS CITY, MO 64154
Phone 816-891-6000
Manager: MITCH LEWIS
5830 NW BARRY ROAD
KANSAS CITY, MO 64154
Phone (816) 880-6018
DOUG BRENSING, 816-880-6540

Additional Remarks

FOR CD CTC KANSAS CITY APCH AT 816-329-2710.

Instrument Procedures

There are no published instrument procedures at MO63.

Some nearby airports with instrument procedures:

KMCI - Kansas City International Airport (4 nm NW)
KMKC - Charles B Wheeler Downtown Airport (8 nm S)
KFLV - Sherman Army Airfield (14 nm NW)
KGPH - Midwest NTL Air Center Airport (16 nm E)
3EX - Excelsior Springs Memorial Airport (22 nm E)
 
Loc | Ops | Rwys | IFR | FBO | Links
Com | Nav | Svcs | Stats | Notes
Area around MO63 (St Luke's Northland Hospital Heliport)
 
Road maps at: MapQuest Bing Google
 
Aerial photo
No photo
 
Sectional chart

 
Airport distance calculator
Flying to St Luke's Northland Hospital Heliport? Find the distance to fly.

From to MO63

Sunrise and sunset
Times for 08-May-2021
 Local
(UTC-5)
 Zulu
(UTC)
Morning civil twilight05:4310:43
Sunrise06:1311:13
Sunset20:1701:17
Evening civil twilight20:4701:47

Current date and time
Zulu (UTC)  08-May-2021 20:22:47
Local (UTC-5)  08-May-2021 15:22:47
 
METAR
KMCI 
5nm NW 
081953Z 10013G23KT 10SM OVC033 22/14 A2970 RMK AO2 PK WND 12027/1901 SLP051 T02170139 $
KMKC 
8nm S 
081954Z 10010G18KT 10SM OVC038 22/13 A2968 RMK AO2 SLP045 T02220133
KGPH 
16nm E 
081935Z AUTO 11011G21KT 10SM OVC032 20/10 A2974 RMK AO2 LTG DSNT NW
TAF
KMCI 
5nm NW 
081741Z 0818/0918 12015G25KT P6SM SCT060 FM090300 12012G22KT P6SM VCSH BKN025 FM090400 09013KT 2SM TSRA BR OVC009CB FM090700 01012KT 4SM -TSRA BR OVC009CB FM090900 01013KT P6SM -SHRA OVC009 FM091100 01013KT P6SM OVC009
KMKC 
8nm S 
081741Z 0818/0918 12013KT P6SM SCT060 FM090300 12013KT P6SM VCSH BKN025 FM090400 09012KT 2SM TSRA BR OVC009CB FM090700 01012KT 4SM -TSRA BR OVC009CB FM090900 01011KT P6SM -SHRA OVC009 FM091100 01012KT P6SM OVC009
NOTAMs
Click for the latest NOTAMs
NOTAMs are issued by the DoD/FAA and will open in a separate window not controlled by AirNav.

 

 
 

Would you like to see your business listed on this page?

 If your business provides an interesting product or service to pilots, flight crews, aircraft, or users of the St Luke's Northland Hospital Heliport, you should consider listing it here.  To start the listing process, click on the button below
 
Add a business
 

Other Pages about St Luke's Northland Hospital Heliport

Update a link
 
Copyright © AirNav, LLC. All rights reserved. Privacy Policy  Contact